Time,TemperatureF,DewpointF,PressureIn,WindDirection,WindDirectionDegrees,WindSpeedMPH,WindSpeedGustMPH,Humidity,HourlyPrecipIn,Conditions,Clouds,dailyrainin,SoftwareType,DateUTC
2013-01-28 00:00:00,24.6,16.0,30.49,NNW,337,3.3,4.9,63,0.00,,,0.00,Rainwise IP-100,2013-01-28 05:00:00,
2013-01-28 00:05:00,24.3,16.0,30.48,NNW,337,3.5,4.7,66,0.00,,,0.00,Rainwise IP-100,2013-01-28 05:05:00,
2013-01-28 00:10:00,24.2,14.0,30.49,NNW,337,3.7,4.7,65,0.00,,,0.00,Rainwise IP-100,2013-01-28 05:10:00,
2013-01-28 00:15:00,24.3,14.0,30.49,NNW,337,2.1,3.7,63,0.00,,,0.00,Rainwise IP-100,2013-01-28 05:15:00,
2013-01-28 00:20:00,24.2,14.0,30.49,NNW,337,1.9,2.6,64,0.00,,,0.00,Rainwise IP-100,2013-01-28 05:20:00,
2013-01-28 00:25:00,24.2,14.0,30.50,NNW,337,1.2,1.9,65,0.00,,,0.00,Rainwise IP-100,2013-01-28 05:25:00,
2013-01-28 00:30:00,24.1,14.0,30.49,NNW,337,1.9,1.9,65,0.00,,,0.00,Rainwise IP-100,2013-01-28 05:30:00,
2013-01-28 00:35:00,24.1,14.0,30.48,NNW,337,1.9,2.3,65,0.00,,,0.00,Rainwise IP-100,2013-01-28 05:35:00,
2013-01-28 00:40:00,24.3,14.0,30.49,NNW,337,1.9,2.3,65,0.00,,,0.00,Rainwise IP-100,2013-01-28 05:40:00,
2013-01-28 00:46:00,24.1,16.0,30.48,NNW,337,2.3,2.3,66,0.00,,,0.00,Rainwise IP-100,2013-01-28 05:46:00,
2013-01-28 00:51:00,23.8,16.0,30.48,NNW,337,2.8,3.0,66,0.00,,,0.00,Rainwise IP-100,2013-01-28 05:51:00,
2013-01-28 00:56:00,23.8,16.0,30.49,NNW,337,2.1,2.8,66,0.00,,,0.00,Rainwise IP-100,2013-01-28 05:56:00,
2013-01-28 01:01:00,23.6,16.0,30.49,NNW,337,1.9,2.6,67,0.00,,,0.00,Rainwise IP-100,2013-01-28 06:01:00,
2013-01-28 01:06:00,23.4,14.0,30.48,NNW,337,1.4,2.6,68,0.00,,,0.00,Rainwise IP-100,2013-01-28 06:06:00,
2013-01-28 01:11:00,23.2,14.0,30.49,NNW,337,2.3,2.3,69,0.00,,,0.00,Rainwise IP-100,2013-01-28 06:11:00,
2013-01-28 01:16:00,23.3,14.0,30.49,NNW,337,2.1,2.3,70,0.00,,,0.00,Rainwise IP-100,2013-01-28 06:16:00,
2013-01-28 01:22:00,23.3,14.0,30.49,NNW,337,2.6,2.6,70,0.00,,,0.00,Rainwise IP-100,2013-01-28 06:22:00,
2013-01-28 01:27:00,23.3,14.0,30.49,NNW,337,3.3,3.7,70,0.00,,,0.00,Rainwise IP-100,2013-01-28 06:27:00,
2013-01-28 01:29:00,23.3,14.0,30.49,NNW,337,3.0,3.7,70,0.00,,,0.00,Rainwise IP-100,2013-01-28 06:29:00,
2013-01-28 01:34:00,23.3,14.0,30.49,NNW,337,2.3,3.5,70,0.00,,,0.00,Rainwise IP-100,2013-01-28 06:34:00,
2013-01-28 01:39:00,23.3,14.0,30.49,NNW,337,2.8,2.8,70,0.00,,,0.00,Rainwise IP-100,2013-01-28 06:39:00,
2013-01-28 01:45:00,23.1,14.0,30.48,NNW,337,2.6,3.3,70,0.00,,,0.00,Rainwise IP-100,2013-01-28 06:45:00,
2013-01-28 01:50:00,23.1,16.0,30.48,NNW,337,2.1,3.3,71,0.00,,,0.00,Rainwise IP-100,2013-01-28 06:50:00,
2013-01-28 01:55:00,23.1,14.0,30.48,NNW,337,1.9,2.3,70,0.00,,,0.00,Rainwise IP-100,2013-01-28 06:55:00,
2013-01-28 02:00:00,23.2,14.0,30.48,NNW,337,1.2,2.8,70,0.00,,,0.00,Rainwise IP-100,2013-01-28 07:00:00,
2013-01-28 02:05:00,23.3,16.0,30.48,NNW,337,2.1,2.6,71,0.00,,,0.00,Rainwise IP-100,2013-01-28 07:05:00,
2013-01-28 02:10:00,23.3,16.0,30.48,NNW,337,1.6,2.6,71,0.00,,,0.00,Rainwise IP-100,2013-01-28 07:10:00,
2013-01-28 02:15:00,23.4,16.0,30.48,NNW,337,2.3,2.3,71,0.00,,,0.00,Rainwise IP-100,2013-01-28 07:15:00,
2013-01-28 02:20:00,23.3,16.0,30.47,NNW,337,1.9,2.3,71,0.00,,,0.00,Rainwise IP-100,2013-01-28 07:20:00,
2013-01-28 02:25:00,23.3,16.0,30.47,NNW,337,2.8,3.0,71,0.00,,,0.00,Rainwise IP-100,2013-01-28 07:25:00,
2013-01-28 02:30:00,23.2,16.0,30.47,NNW,337,2.1,3.0,71,0.00,,,0.00,Rainwise IP-100,2013-01-28 07:30:00,
2013-01-28 02:36:00,23.2,16.0,30.46,NNW,337,3.5,3.7,71,0.00,,,0.00,Rainwise IP-100,2013-01-28 07:36:00,
2013-01-28 02:41:00,23.1,16.0,30.46,NNW,337,2.8,4.2,72,0.00,,,0.00,Rainwise IP-100,2013-01-28 07:41:00,
2013-01-28 02:46:00,23.1,16.0,30.46,NNW,337,3.0,3.7,72,0.00,,,0.00,Rainwise IP-100,2013-01-28 07:46:00,
2013-01-28 02:51:00,23.1,16.0,30.46,NNW,337,3.3,3.5,73,0.00,,,0.00,Rainwise IP-100,2013-01-28 07:51:00,
2013-01-28 02:56:00,23.1,16.0,30.46,NNW,337,2.1,3.5,73,0.00,,,0.00,Rainwise IP-100,2013-01-28 07:56:00,
2013-01-28 03:01:00,23.0,16.0,30.45,NNW,337,0.0,2.3,73,0.00,,,0.00,Rainwise IP-100,2013-01-28 08:01:00,
2013-01-28 03:06:00,23.0,16.0,30.45,NNW,337,0.0,0.0,73,0.00,,,0.00,Rainwise IP-100,2013-01-28 08:06:00,
2013-01-28 03:11:00,23.0,16.0,30.45,NNW,337,2.3,2.3,74,0.00,,,0.00,Rainwise IP-100,2013-01-28 08:11:00,
2013-01-28 03:17:00,23.0,16.0,30.45,NNW,337,1.4,2.8,75,0.00,,,0.00,Rainwise IP-100,2013-01-28 08:17:00,
2013-01-28 03:22:00,23.1,16.0,30.45,NNW,337,0.0,2.1,75,0.00,,,0.00,Rainwise IP-100,2013-01-28 08:22:00,
2013-01-28 03:27:00,23.2,16.0,30.45,NNW,337,0.0,0.0,75,0.00,,,0.00,Rainwise IP-100,2013-01-28 08:27:00,
2013-01-28 03:32:00,23.3,16.0,30.45,NNW,337,1.6,2.1,76,0.00,,,0.00,Rainwise IP-100,2013-01-28 08:32:00,
2013-01-28 03:37:00,23.5,18.0,30.46,NNW,337,1.6,2.1,76,0.00,,,0.00,Rainwise IP-100,2013-01-28 08:37:00,
2013-01-28 03:42:00,23.6,18.0,30.45,NNW,337,1.4,1.9,76,0.00,,,0.00,Rainwise IP-100,2013-01-28 08:42:00,
2013-01-28 03:47:00,23.5,18.0,30.45,NNW,337,0.0,1.9,76,0.00,,,0.00,Rainwise IP-100,2013-01-28 08:47:00,
2013-01-28 03:53:00,23.4,16.0,30.45,NNW,337,0.0,0.0,76,0.00,,,0.00,Rainwise IP-100,2013-01-28 08:53:00,
2013-01-28 03:54:00,23.4,16.0,30.45,NNW,337,1.2,1.2,76,0.00,,,0.00,Rainwise IP-100,2013-01-28 08:54:00,
2013-01-28 03:55:00,23.4,16.0,30.45,NNW,337,1.2,1.2,76,0.00,,,0.00,Rainwise IP-100,2013-01-28 08:55:00,
2013-01-28 03:59:00,23.5,18.0,30.45,NNW,337,1.4,1.9,76,0.00,,,0.00,Rainwise IP-100,2013-01-28 08:59:00,
2013-01-28 04:00:00,23.5,18.0,30.45,NNW,337,2.1,2.1,76,0.00,,,0.00,Rainwise IP-100,2013-01-28 09:00:00,
2013-01-28 04:01:00,23.6,18.0,30.45,NNW,337,1.9,2.1,76,0.00,,,0.00,Rainwise IP-100,2013-01-28 09:01:00,
2013-01-28 04:02:00,23.6,18.0,30.45,NNW,337,1.9,2.1,76,0.00,,,0.00,Rainwise IP-100,2013-01-28 09:02:00,
2013-01-28 04:05:00,23.7,18.0,30.45,NNW,337,1.4,2.1,75,0.00,,,0.00,Rainwise IP-100,2013-01-28 09:05:00,
2013-01-28 04:06:00,23.7,18.0,30.45,NNW,337,1.4,2.1,75,0.00,,,0.00,Rainwise IP-100,2013-01-28 09:06:00,
2013-01-28 04:07:00,23.8,18.0,30.44,NNW,337,1.2,2.1,75,0.00,,,0.00,Rainwise IP-100,2013-01-28 09:07:00,
2013-01-28 04:13:00,23.8,18.0,30.44,NNW,337,2.1,2.1,75,0.00,,,0.00,Rainwise IP-100,2013-01-28 09:13:00,
2013-01-28 04:14:00,23.8,18.0,30.44,NNW,337,3.0,3.0,75,0.00,,,0.00,Rainwise IP-100,2013-01-28 09:14:00,
2013-01-28 04:19:00,23.9,18.0,30.44,NNW,337,3.0,4.0,74,0.00,,,0.00,Rainwise IP-100,2013-01-28 09:19:00,
2013-01-28 04:24:00,24.0,16.0,30.44,NNW,337,2.1,3.3,73,0.00,,,0.00,Rainwise IP-100,2013-01-28 09:24:00,
2013-01-28 04:29:00,24.2,16.0,30.44,NE,45,1.4,2.1,73,0.00,,,0.00,Rainwise IP-100,2013-01-28 09:29:00,
2013-01-28 04:34:00,24.4,16.0,30.44,NE,45,0.0,1.4,73,0.00,,,0.00,Rainwise IP-100,2013-01-28 09:34:00,
2013-01-28 04:39:00,24.5,18.0,30.44,NE,45,0.0,0.0,74,0.00,,,0.00,Rainwise IP-100,2013-01-28 09:39:00,
2013-01-28 04:44:00,24.5,18.0,30.44,NE,45,0.0,1.2,73,0.00,,,0.00,Rainwise IP-100,2013-01-28 09:44:00,
2013-01-28 04:49:00,24.6,18.0,30.44,NE,45,0.0,0.0,73,0.00,,,0.00,Rainwise IP-100,2013-01-28 09:49:00,
2013-01-28 04:50:00,24.6,18.0,30.44,NE,45,0.0,0.0,73,0.00,,,0.00,Rainwise IP-100,2013-01-28 09:50:00,
2013-01-28 04:52:00,24.6,18.0,30.44,NE,45,0.0,0.0,73,0.00,,,0.00,Rainwise IP-100,2013-01-28 09:52:00,
2013-01-28 04:55:00,24.7,18.0,30.43,NE,45,0.0,0.0,73,0.00,,,0.00,Rainwise IP-100,2013-01-28 09:55:00,
2013-01-28 05:01:00,24.8,18.0,30.43,NE,45,0.0,0.0,73,0.00,,,0.00,Rainwise IP-100,2013-01-28 10:01:00,
2013-01-28 05:06:00,24.9,18.0,30.43,NE,45,0.0,0.0,73,0.00,,,0.00,Rainwise IP-100,2013-01-28 10:06:00,
2013-01-28 05:11:00,25.0,18.0,30.43,NE,45,1.2,0.0,73,0.00,,,0.00,Rainwise IP-100,2013-01-28 10:11:00,
2013-01-28 05:16:00,25.0,18.0,30.43,NE,45,0.0,1.4,74,0.00,,,0.00,Rainwise IP-100,2013-01-28 10:16:00,
2013-01-28 05:21:00,25.0,18.0,30.43,NE,45,1.4,1.9,74,0.00,,,0.00,Rainwise IP-100,2013-01-28 10:21:00,
2013-01-28 05:26:00,25.0,18.0,30.43,NNE,22,1.4,2.8,72,0.00,,,0.00,Rainwise IP-100,2013-01-28 10:26:00,
2013-01-28 05:31:00,25.0,18.0,30.42,North,360,1.4,2.8,71,0.00,,,0.00,Rainwise IP-100,2013-01-28 10:31:00,
2013-01-28 05:36:00,25.2,18.0,30.42,North,360,1.2,1.9,70,0.00,,,0.00,Rainwise IP-100,2013-01-28 10:36:00,
2013-01-28 05:42:00,25.3,18.0,30.42,North,360,2.1,2.8,70,0.00,,,0.00,Rainwise IP-100,2013-01-28 10:42:00,
2013-01-28 05:47:00,25.3,18.0,30.41,NNE,22,2.1,4.0,69,0.00,,,0.00,Rainwise IP-100,2013-01-28 10:47:00,
2013-01-28 05:52:00,25.3,18.0,30.41,NNE,22,1.2,2.6,68,0.00,,,0.00,Rainwise IP-100,2013-01-28 10:52:00,
2013-01-28 05:57:00,25.2,18.0,30.41,NNE,22,0.0,1.6,68,0.00,,,0.00,Rainwise IP-100,2013-01-28 10:57:00,
2013-01-28 06:02:00,25.2,18.0,30.42,NNE,22,0.0,0.0,69,0.00,,,0.00,Rainwise IP-100,2013-01-28 11:02:00,
2013-01-28 06:07:00,25.3,18.0,30.42,NNE,22,2.3,2.3,68,0.00,,,0.00,Rainwise IP-100,2013-01-28 11:07:00,
2013-01-28 06:12:00,25.4,18.0,30.42,NNE,22,0.0,2.6,68,0.00,,,0.00,Rainwise IP-100,2013-01-28 11:12:00,
2013-01-28 06:18:00,25.5,18.0,30.41,ENE,67,4.0,4.7,68,0.00,,,0.00,Rainwise IP-100,2013-01-28 11:18:00,
2013-01-28 06:23:00,25.3,16.0,30.41,ENE,67,4.0,5.4,67,0.00,,,0.00,Rainwise IP-100,2013-01-28 11:23:00,
2013-01-28 06:28:00,25.0,16.0,30.42,NE,45,1.9,5.1,67,0.00,,,0.00,Rainwise IP-100,2013-01-28 11:28:00,
2013-01-28 06:30:00,25.0,18.0,30.42,NE,45,0.0,4.4,68,0.00,,,0.00,Rainwise IP-100,2013-01-28 11:30:00,
2013-01-28 06:35:00,25.2,18.0,30.43,NE,45,0.0,1.6,68,0.00,,,0.00,Rainwise IP-100,2013-01-28 11:35:00,
2013-01-28 06:40:00,25.3,16.0,30.42,NE,45,0.0,1.6,67,0.00,,,0.00,Rainwise IP-100,2013-01-28 11:40:00,
2013-01-28 06:45:00,25.4,16.0,30.42,NE,45,0.0,0.0,67,0.00,,,0.00,Rainwise IP-100,2013-01-28 11:45:00,
2013-01-28 06:50:00,25.6,16.0,30.43,NE,45,1.2,1.2,66,0.00,,,0.00,Rainwise IP-100,2013-01-28 11:50:00,
2013-01-28 06:56:00,25.7,16.0,30.43,NE,45,1.6,1.6,67,0.00,,,0.00,Rainwise IP-100,2013-01-28 11:56:00,
2013-01-28 07:01:00,25.7,16.0,30.43,NE,45,1.4,2.1,66,0.00,,,0.00,Rainwise IP-100,2013-01-28 12:01:00,
2013-01-28 07:06:00,25.8,16.0,30.43,NE,45,2.1,2.6,66,0.00,,,0.00,Rainwise IP-100,2013-01-28 12:06:00,
2013-01-28 07:11:00,25.9,16.0,30.43,NE,45,1.4,2.3,66,0.00,,,0.00,Rainwise IP-100,2013-01-28 12:11:00,
2013-01-28 07:16:00,26.1,16.0,30.42,NE,45,1.4,1.9,65,0.00,,,0.00,Rainwise IP-100,2013-01-28 12:16:00,
2013-01-28 07:21:00,26.2,16.0,30.43,NE,45,1.2,2.8,65,0.00,,,0.00,Rainwise IP-100,2013-01-28 12:21:00,
2013-01-28 07:26:00,26.4,16.0,30.42,NE,45,1.9,2.6,64,0.00,,,0.00,Rainwise IP-100,2013-01-28 12:26:00,
2013-01-28 07:31:00,26.4,16.0,30.41,NE,45,1.9,3.7,64,0.00,,,0.00,Rainwise IP-100,2013-01-28 12:31:00,
2013-01-28 07:37:00,26.4,16.0,30.41,NE,45,1.6,2.6,64,0.00,,,0.00,Rainwise IP-100,2013-01-28 12:37:00,
2013-01-28 07:42:00,26.5,18.0,30.42,NNE,22,4.2,4.2,65,0.00,,,0.00,Rainwise IP-100,2013-01-28 12:42:00,
2013-01-28 07:47:00,26.6,18.0,30.42,NNE,22,2.8,4.2,65,0.00,,,0.00,Rainwise IP-100,2013-01-28 12:47:00,
2013-01-28 07:52:00,26.7,18.0,30.41,North,360,2.3,4.4,65,0.00,,,0.00,Rainwise IP-100,2013-01-28 12:52:00,
2013-01-28 07:57:00,26.8,18.0,30.41,NNE,22,1.9,4.0,65,0.00,,,0.00,Rainwise IP-100,2013-01-28 12:57:00,
2013-01-28 08:02:00,26.9,18.0,30.41,NNE,22,0.0,3.0,65,0.00,,,0.00,Rainwise IP-100,2013-01-28 13:02:00,
2013-01-28 08:07:00,27.0,18.0,30.41,NNE,22,1.2,1.6,64,0.00,,,0.00,Rainwise IP-100,2013-01-28 13:07:00,
2013-01-28 08:13:00,27.2,18.0,30.41,NNE,22,1.2,1.6,64,0.00,,,0.00,Rainwise IP-100,2013-01-28 13:13:00,
2013-01-28 08:18:00,27.4,18.0,30.41,NNE,22,1.6,2.3,64,0.00,,,0.00,Rainwise IP-100,2013-01-28 13:18:00,
2013-01-28 08:23:00,27.6,18.0,30.42,NNE,22,2.1,3.0,64,0.00,,,0.00,Rainwise IP-100,2013-01-28 13:23:00,
2013-01-28 08:28:00,27.8,16.0,30.42,NNE,22,0.0,2.6,63,0.00,,,0.00,Rainwise IP-100,2013-01-28 13:28:00,
2013-01-28 08:33:00,27.9,16.0,30.42,NNE,22,0.0,2.6,63,0.00,,,0.00,Rainwise IP-100,2013-01-28 13:33:00,
2013-01-28 08:38:00,28.1,16.0,30.42,NNE,22,1.4,1.9,63,0.00,,,0.00,Rainwise IP-100,2013-01-28 13:38:00,
2013-01-28 08:43:00,28.3,18.0,30.41,NNE,22,0.0,1.4,64,0.00,,,0.00,Rainwise IP-100,2013-01-28 13:43:00,
2013-01-28 08:48:00,28.3,18.0,30.41,NNE,22,0.0,1.9,64,0.00,,,0.00,Rainwise IP-100,2013-01-28 13:48:00,
2013-01-28 08:54:00,28.3,18.0,30.40,NNE,22,1.6,2.3,64,0.00,,,0.00,Rainwise IP-100,2013-01-28 13:54:00,
2013-01-28 08:59:00,28.3,18.0,30.41,NNE,22,0.0,2.3,64,0.00,,,0.00,Rainwise IP-100,2013-01-28 13:59:00,
2013-01-28 09:04:00,28.5,21.0,30.41,NNE,22,0.0,1.6,66,0.00,,,0.00,Rainwise IP-100,2013-01-28 14:04:00,
2013-01-28 09:09:00,28.8,21.0,30.41,NNE,22,0.0,0.0,66,0.00,,,0.00,Rainwise IP-100,2013-01-28 14:09:00,
2013-01-28 09:14:00,29.0,21.0,30.42,NNW,337,2.8,3.0,66,0.00,,,0.00,Rainwise IP-100,2013-01-28 14:14:00,
2013-01-28 09:19:00,28.9,21.0,30.40,NW,315,2.3,3.7,66,0.00,,,0.00,Rainwise IP-100,2013-01-28 14:19:00,
2013-01-28 09:24:00,28.9,21.0,30.40,NNW,337,0.0,2.8,66,0.00,,,0.00,Rainwise IP-100,2013-01-28 14:24:00,
2013-01-28 09:30:00,29.1,21.0,30.40,NNW,337,1.4,2.3,67,0.00,,,0.00,Rainwise IP-100,2013-01-28 14:30:00,
2013-01-28 09:35:00,29.4,21.0,30.40,NNW,337,1.6,2.6,69,0.00,,,0.00,Rainwise IP-100,2013-01-28 14:35:00,
2013-01-28 09:40:00,29.6,23.0,30.40,NNW,337,0.0,4.2,70,0.00,,,0.00,Rainwise IP-100,2013-01-28 14:40:00,
2013-01-28 09:45:00,29.7,23.0,30.39,NNW,337,0.0,1.6,71,0.00,,,0.00,Rainwise IP-100,2013-01-28 14:45:00,
2013-01-28 09:50:00,30.0,23.0,30.39,NNW,337,0.0,1.9,71,0.00,,,0.00,Rainwise IP-100,2013-01-28 14:50:00,
2013-01-28 09:55:00,30.1,23.0,30.39,WSW,247,0.0,0.0,71,0.00,,,0.00,Rainwise IP-100,2013-01-28 14:55:00,
2013-01-28 10:00:00,30.3,23.0,30.39,SE,135,1.9,5.8,71,0.00,,,0.00,Rainwise IP-100,2013-01-28 15:00:00,
2013-01-28 10:05:00,30.6,23.0,30.38,SE,135,5.6,6.5,72,0.00,,,0.00,Rainwise IP-100,2013-01-28 15:05:00,
2013-01-28 10:10:00,30.8,24.0,30.38,SSW,202,10.3,14.0,74,0.00,,,0.00,Rainwise IP-100,2013-01-28 15:10:00,
2013-01-28 10:16:00,31.0,24.0,30.39,SW,225,5.1,15.9,78,0.00,,,0.00,Rainwise IP-100,2013-01-28 15:16:00,
2013-01-28 10:21:00,30.9,26.0,30.39,SW,225,7.0,14.9,81,0.00,,,0.00,Rainwise IP-100,2013-01-28 15:21:00,
2013-01-28 10:26:00,30.9,26.0,30.39,SSW,202,6.3,13.8,83,0.00,,,0.00,Rainwise IP-100,2013-01-28 15:26:00,
2013-01-28 10:31:00,30.9,26.0,30.38,South,180,9.3,14.0,84,0.00,,,0.00,Rainwise IP-100,2013-01-28 15:31:00,
2013-01-28 10:36:00,30.9,26.0,30.37,SSW,202,9.1,15.2,85,0.00,,,0.00,Rainwise IP-100,2013-01-28 15:36:00,
2013-01-28 10:41:00,30.9,26.0,30.37,South,180,14.0,14.9,85,0.00,,,0.00,Rainwise IP-100,2013-01-28 15:41:00,
2013-01-28 10:46:00,30.9,28.0,30.36,South,180,8.2,15.4,86,0.00,,,0.00,Rainwise IP-100,2013-01-28 15:46:00,
2013-01-28 10:51:00,30.8,28.0,30.35,South,180,11.2,14.9,87,0.00,,,0.00,Rainwise IP-100,2013-01-28 15:51:00,
2013-01-28 10:57:00,30.8,28.0,30.35,South,180,14.2,14.2,87,0.00,,,0.00,Rainwise IP-100,2013-01-28 15:57:00,
2013-01-28 11:02:00,30.9,28.0,30.35,SSW,202,12.4,15.9,87,0.00,,,0.00,Rainwise IP-100,2013-01-28 16:02:00,
2013-01-28 11:07:00,30.9,28.0,30.34,South,180,11.4,14.0,87,0.00,,,0.00,Rainwise IP-100,2013-01-28 16:07:00,
2013-01-28 11:12:00,31.0,28.0,30.34,South,180,13.1,14.7,87,0.00,,,0.00,Rainwise IP-100,2013-01-28 16:12:00,
2013-01-28 11:17:00,31.0,28.0,30.34,South,180,10.7,15.6,87,0.00,,,0.00,Rainwise IP-100,2013-01-28 16:17:00,
2013-01-28 11:22:00,31.1,28.0,30.34,South,180,13.3,15.2,88,0.00,,,0.00,Rainwise IP-100,2013-01-28 16:22:00,
2013-01-28 11:27:00,31.2,28.0,30.33,South,180,13.5,16.3,88,0.00,,,0.00,Rainwise IP-100,2013-01-28 16:27:00,
2013-01-28 11:32:00,31.3,28.0,30.32,South,180,13.3,15.4,89,0.00,,,0.00,Rainwise IP-100,2013-01-28 16:32:00,
2013-01-28 11:38:00,31.3,28.0,30.32,South,180,13.3,17.5,90,0.00,,,0.00,Rainwise IP-100,2013-01-28 16:38:00,
2013-01-28 11:43:00,31.3,28.0,30.32,South,180,13.3,18.4,90,0.00,,,0.00,Rainwise IP-100,2013-01-28 16:43:00,
2013-01-28 11:48:00,31.3,28.0,30.32,South,180,15.2,16.8,91,0.00,,,0.00,Rainwise IP-100,2013-01-28 16:48:00,
2013-01-28 11:53:00,31.3,28.0,30.31,SSW,202,15.2,20.3,91,0.00,,,0.00,Rainwise IP-100,2013-01-28 16:53:00,
2013-01-28 11:58:00,31.4,28.0,30.31,South,180,16.1,18.4,91,0.00,,,0.00,Rainwise IP-100,2013-01-28 16:58:00,
2013-01-28 12:03:00,31.6,29.0,30.32,SSW,202,10.5,17.3,91,0.00,,,0.00,Rainwise IP-100,2013-01-28 17:03:00,
2013-01-28 12:08:00,31.6,29.0,30.30,South,180,12.4,16.8,91,0.00,,,0.00,Rainwise IP-100,2013-01-28 17:08:00,
2013-01-28 12:14:00,31.7,29.0,30.29,SSW,202,10.0,17.0,91,0.00,,,0.00,Rainwise IP-100,2013-01-28 17:14:00,
2013-01-28 12:19:00,31.8,29.0,30.28,South,180,15.4,17.3,91,0.00,,,0.00,Rainwise IP-100,2013-01-28 17:19:00,
2013-01-28 12:24:00,31.9,29.0,30.27,South,180,15.9,15.9,91,0.00,,,0.00,Rainwise IP-100,2013-01-28 17:24:00,
2013-01-28 12:29:00,31.9,29.0,30.26,South,180,15.9,17.0,91,0.00,,,0.00,Rainwise IP-100,2013-01-28 17:29:00,
2013-01-28 12:34:00,32.1,29.0,30.26,South,180,13.3,18.9,91,0.00,,,0.00,Rainwise IP-100,2013-01-28 17:34:00,
2013-01-28 12:39:00,32.2,29.0,30.26,South,180,15.9,17.0,91,0.00,,,0.00,Rainwise IP-100,2013-01-28 17:39:00,
2013-01-28 12:44:00,32.3,29.0,30.25,South,180,17.3,18.9,91,0.00,,,0.00,Rainwise IP-100,2013-01-28 17:44:00,
2013-01-28 12:49:00,32.4,29.0,30.24,South,180,13.3,21.2,91,0.00,,,0.00,Rainwise IP-100,2013-01-28 17:49:00,
2013-01-28 12:55:00,32.5,31.0,30.24,SSW,202,15.9,17.7,91,0.00,,,0.00,Rainwise IP-100,2013-01-28 17:55:00,
2013-01-28 13:00:00,32.5,31.0,30.24,South,180,13.3,16.1,91,0.00,,,0.00,Rainwise IP-100,2013-01-28 18:00:00,
2013-01-28 13:05:00,32.7,31.0,30.24,South,180,13.1,16.3,91,0.00,,,0.00,Rainwise IP-100,2013-01-28 18:05:00,
2013-01-28 13:10:00,32.8,31.0,30.23,South,180,15.2,17.5,91,0.00,,,0.00,Rainwise IP-100,2013-01-28 18:10:00,
2013-01-28 13:15:00,32.8,31.0,30.21,South,180,15.9,19.6,91,0.00,,,0.00,Rainwise IP-100,2013-01-28 18:15:00,
2013-01-28 13:20:00,32.9,31.0,30.21,South,180,17.0,19.4,91,0.00,,,0.00,Rainwise IP-100,2013-01-28 18:20:00,
2013-01-28 13:25:00,33.0,31.0,30.21,South,180,15.4,20.3,91,0.00,,,0.00,Rainwise IP-100,2013-01-28 18:25:00,
2013-01-28 13:30:00,33.0,31.0,30.21,South,180,11.4,16.3,90,0.00,,,0.00,Rainwise IP-100,2013-01-28 18:30:00,
2013-01-28 13:32:00,33.0,31.0,30.21,SSW,202,12.8,16.3,90,0.00,,,0.00,Rainwise IP-100,2013-01-28 18:32:00,
2013-01-28 13:37:00,33.0,31.0,30.20,SSW,202,11.7,16.8,90,0.00,,,0.00,Rainwise IP-100,2013-01-28 18:37:00,
2013-01-28 13:42:00,33.1,31.0,30.20,South,180,9.6,15.6,91,0.00,,,0.00,Rainwise IP-100,2013-01-28 18:42:00,
2013-01-28 13:45:00,33.1,31.0,30.20,SSW,202,12.1,14.2,91,0.00,,,0.00,Rainwise IP-100,2013-01-28 18:45:00,
2013-01-28 13:46:00,33.1,31.0,30.20,South,180,13.1,14.9,91,0.00,,,0.00,Rainwise IP-100,2013-01-28 18:46:00,
2013-01-28 13:51:00,33.1,31.0,30.18,South,180,14.7,15.4,91,0.00,,,0.00,Rainwise IP-100,2013-01-28 18:51:00,
2013-01-28 13:56:00,33.2,31.0,30.18,SSE,157,11.4,15.2,91,0.00,,,0.00,Rainwise IP-100,2013-01-28 18:56:00,
2013-01-28 14:01:00,33.3,31.0,30.18,South,180,12.4,14.5,91,0.00,,,0.00,Rainwise IP-100,2013-01-28 19:01:00,
2013-01-28 14:06:00,33.3,31.0,30.18,South,180,12.8,17.0,91,0.00,,,0.00,Rainwise IP-100,2013-01-28 19:06:00,
2013-01-28 14:11:00,33.3,31.0,30.17,South,180,12.8,18.2,91,0.00,,,0.00,Rainwise IP-100,2013-01-28 19:11:00,
2013-01-28 14:17:00,33.3,31.0,30.16,South,180,13.5,14.9,91,0.00,,,0.00,Rainwise IP-100,2013-01-28 19:17:00,
2013-01-28 14:22:00,33.3,31.0,30.16,South,180,14.5,17.3,92,0.00,,,0.00,Rainwise IP-100,2013-01-28 19:22:00,
2013-01-28 14:27:00,33.4,31.0,30.16,South,180,15.2,16.8,92,0.00,,,0.00,Rainwise IP-100,2013-01-28 19:27:00,
2013-01-28 14:32:00,33.4,31.0,30.15,South,180,15.4,17.0,92,0.00,,,0.00,Rainwise IP-100,2013-01-28 19:32:00,
2013-01-28 14:37:00,33.4,31.0,30.16,South,180,16.8,16.8,92,0.00,,,0.00,Rainwise IP-100,2013-01-28 19:37:00,
2013-01-28 14:42:00,33.5,32.0,30.15,South,180,16.3,17.3,92,0.06,,,0.01,Rainwise IP-100,2013-01-28 19:42:00,
2013-01-28 14:47:00,33.5,32.0,30.15,South,180,13.5,18.0,92,0.06,,,0.01,Rainwise IP-100,2013-01-28 19:47:00,
2013-01-28 14:52:00,33.6,33.0,30.15,SSW,202,11.4,15.9,93,0.00,,,0.01,Rainwise IP-100,2013-01-28 19:52:00,
2013-01-28 14:58:00,33.5,33.0,30.14,South,180,11.0,14.2,93,0.00,,,0.01,Rainwise IP-100,2013-01-28 19:58:00,
2013-01-28 15:03:00,33.5,33.0,30.14,South,180,12.4,14.0,93,0.00,,,0.01,Rainwise IP-100,2013-01-28 20:03:00,
2013-01-28 15:08:00,33.6,33.0,30.14,SSW,202,9.6,12.1,93,0.00,,,0.01,Rainwise IP-100,2013-01-28 20:08:00,
2013-01-28 15:13:00,33.6,33.0,30.14,SSW,202,5.8,11.2,93,0.06,,,0.02,Rainwise IP-100,2013-01-28 20:13:00,
2013-01-28 15:18:00,33.6,33.0,30.14,SSW,202,10.3,10.3,93,0.06,,,0.02,Rainwise IP-100,2013-01-28 20:18:00,
2013-01-28 15:23:00,33.6,33.0,30.14,South,180,9.6,11.2,93,0.06,,,0.03,Rainwise IP-100,2013-01-28 20:23:00,
2013-01-28 15:28:00,33.7,33.0,30.13,South,180,8.2,12.4,93,0.12,,,0.04,Rainwise IP-100,2013-01-28 20:28:00,
2013-01-28 15:34:00,33.7,33.0,30.13,South,180,8.2,12.6,94,0.06,,,0.04,Rainwise IP-100,2013-01-28 20:34:00,
2013-01-28 15:39:00,33.6,33.0,30.13,South,180,9.1,12.4,94,0.06,,,0.05,Rainwise IP-100,2013-01-28 20:39:00,
2013-01-28 15:44:00,33.7,33.0,30.12,SSW,202,11.9,13.3,94,0.12,,,0.06,Rainwise IP-100,2013-01-28 20:44:00,
2013-01-28 15:49:00,33.7,33.0,30.13,SSW,202,8.2,14.9,94,0.12,,,0.07,Rainwise IP-100,2013-01-28 20:49:00,
2013-01-28 15:54:00,33.7,33.0,30.12,South,180,11.7,13.8,94,0.06,,,0.07,Rainwise IP-100,2013-01-28 20:54:00,
2013-01-28 15:59:00,33.7,33.0,30.11,SSW,202,11.2,14.5,94,0.06,,,0.08,Rainwise IP-100,2013-01-28 20:59:00,
2013-01-28 16:04:00,33.6,33.0,30.11,South,180,8.6,14.2,94,0.06,,,0.08,Rainwise IP-100,2013-01-28 21:04:00,
2013-01-28 16:09:00,33.6,33.0,30.11,SSW,202,8.9,12.6,95,0.06,,,0.09,Rainwise IP-100,2013-01-28 21:09:00,
2013-01-28 16:15:00,33.6,33.0,30.11,SW,225,6.5,12.8,95,0.12,,,0.10,Rainwise IP-100,2013-01-28 21:15:00,
2013-01-28 16:20:00,33.6,33.0,30.11,South,180,13.3,13.8,95,0.12,,,0.11,Rainwise IP-100,2013-01-28 21:20:00,
2013-01-28 16:25:00,33.6,33.0,30.11,South,180,6.5,14.5,95,0.06,,,0.11,Rainwise IP-100,2013-01-28 21:25:00,
2013-01-28 16:30:00,33.6,33.0,30.10,SSW,202,7.5,13.1,95,0.00,,,0.11,Rainwise IP-100,2013-01-28 21:30:00,
2013-01-28 16:35:00,33.6,33.0,30.10,SSW,202,9.8,13.5,95,0.06,,,0.12,Rainwise IP-100,2013-01-28 21:35:00,
2013-01-28 16:40:00,33.5,33.0,30.10,South,180,7.2,12.8,95,0.06,,,0.12,Rainwise IP-100,2013-01-28 21:40:00,
2013-01-28 16:45:00,33.5,33.0,30.10,SSW,202,7.5,10.7,95,0.00,,,0.12,Rainwise IP-100,2013-01-28 21:45:00,
2013-01-28 16:51:00,33.5,33.0,30.10,SW,225,4.4,11.4,95,0.00,,,0.12,Rainwise IP-100,2013-01-28 21:51:00,
2013-01-28 16:56:00,33.5,33.0,30.10,SSW,202,9.1,10.5,95,0.00,,,0.12,Rainwise IP-100,2013-01-28 21:56:00,
2013-01-28 17:01:00,33.5,33.0,30.09,SSW,202,6.8,10.3,95,0.00,,,0.12,Rainwise IP-100,2013-01-28 22:01:00,
2013-01-28 17:06:00,33.5,33.0,30.09,SSW,202,9.3,11.2,95,0.00,,,0.12,Rainwise IP-100,2013-01-28 22:06:00,
2013-01-28 17:11:00,33.5,33.0,30.09,SW,225,5.1,10.7,95,0.00,,,0.12,Rainwise IP-100,2013-01-28 22:11:00,
2013-01-28 17:16:00,33.5,33.0,30.09,WSW,247,4.2,7.0,95,0.00,,,0.12,Rainwise IP-100,2013-01-28 22:16:00,
2013-01-28 17:21:00,33.5,33.0,30.09,SSW,202,6.1,6.5,95,0.00,,,0.12,Rainwise IP-100,2013-01-28 22:21:00,
2013-01-28 17:27:00,33.5,33.0,30.09,SSW,202,3.3,8.9,95,0.00,,,0.12,Rainwise IP-100,2013-01-28 22:27:00,
2013-01-28 17:32:00,33.5,33.0,30.09,SW,225,0.0,7.0,95,0.00,,,0.12,Rainwise IP-100,2013-01-28 22:32:00,
2013-01-28 17:37:00,33.4,32.0,30.09,SSW,202,5.1,6.3,96,0.00,,,0.12,Rainwise IP-100,2013-01-28 22:37:00,
2013-01-28 17:42:00,33.4,32.0,30.09,WSW,247,2.3,4.7,96,0.00,,,0.12,Rainwise IP-100,2013-01-28 22:42:00,
2013-01-28 17:47:00,33.4,32.0,30.08,SW,225,2.1,4.4,96,0.00,,,0.12,Rainwise IP-100,2013-01-28 22:47:00,
2013-01-28 17:52:00,33.4,32.0,30.08,WSW,247,2.6,4.2,96,0.00,,,0.12,Rainwise IP-100,2013-01-28 22:52:00,
2013-01-28 17:57:00,33.4,32.0,30.08,SW,225,2.6,4.4,96,0.00,,,0.12,Rainwise IP-100,2013-01-28 22:57:00,
2013-01-28 18:02:00,33.4,32.0,30.08,South,180,0.0,5.8,96,0.00,,,0.12,Rainwise IP-100,2013-01-28 23:02:00,
2013-01-28 18:08:00,33.4,32.0,30.08,SSW,202,3.3,4.7,96,0.00,,,0.12,Rainwise IP-100,2013-01-28 23:08:00,
2013-01-28 18:13:00,33.4,32.0,30.07,SSE,157,1.9,4.4,96,0.00,,,0.12,Rainwise IP-100,2013-01-28 23:13:00,
2013-01-28 18:18:00,33.4,32.0,30.07,SSW,202,0.0,3.3,96,0.00,,,0.12,Rainwise IP-100,2013-01-28 23:18:00,
2013-01-28 18:23:00,33.4,32.0,30.07,SSW,202,0.0,4.7,96,0.00,,,0.12,Rainwise IP-100,2013-01-28 23:23:00,
2013-01-28 18:28:00,33.5,33.0,30.08,WSW,247,2.6,3.3,96,0.00,,,0.12,Rainwise IP-100,2013-01-28 23:28:00,
2013-01-28 18:33:00,33.5,33.0,30.08,WSW,247,2.6,4.0,96,0.00,,,0.12,Rainwise IP-100,2013-01-28 23:33:00,
2013-01-28 18:38:00,33.5,33.0,30.07,WSW,247,0.0,3.7,96,0.00,,,0.12,Rainwise IP-100,2013-01-28 23:38:00,
2013-01-28 18:44:00,33.5,33.0,30.08,WSW,247,0.0,2.8,96,0.00,,,0.12,Rainwise IP-100,2013-01-28 23:44:00,
2013-01-28 18:49:00,33.6,33.0,30.07,SW,225,2.8,3.5,96,0.00,,,0.12,Rainwise IP-100,2013-01-28 23:49:00,
2013-01-28 18:54:00,33.6,33.0,30.07,SW,225,1.9,3.7,96,0.00,,,0.12,Rainwise IP-100,2013-01-28 23:54:00,
2013-01-28 18:59:00,33.5,33.0,30.07,South,180,3.5,4.0,96,0.00,,,0.12,Rainwise IP-100,2013-01-28 23:59:00,
2013-01-28 19:04:00,33.5,33.0,30.07,SSW,202,2.1,4.2,97,0.00,,,0.12,Rainwise IP-100,2013-01-29 00:04:00,
2013-01-28 19:09:00,33.5,33.0,30.06,South,180,3.7,4.0,97,0.00,,,0.12,Rainwise IP-100,2013-01-29 00:09:00,
2013-01-28 19:14:00,33.5,33.0,30.06,SSW,202,4.4,5.8,97,0.00,,,0.12,Rainwise IP-100,2013-01-29 00:14:00,
2013-01-28 19:19:00,33.6,33.0,30.07,SW,225,3.0,5.8,97,0.00,,,0.12,Rainwise IP-100,2013-01-29 00:19:00,
2013-01-28 19:25:00,33.6,33.0,30.06,SSW,202,3.5,4.7,97,0.00,,,0.12,Rainwise IP-100,2013-01-29 00:25:00,
2013-01-28 19:30:00,33.6,33.0,30.06,SW,225,0.0,4.7,97,0.00,,,0.12,Rainwise IP-100,2013-01-29 00:30:00,
2013-01-28 19:35:00,33.7,33.0,30.07,WSW,247,4.2,4.9,97,0.00,,,0.12,Rainwise IP-100,2013-01-29 00:35:00,
2013-01-28 19:40:00,33.7,33.0,30.06,WSW,247,2.8,4.7,97,0.00,,,0.12,Rainwise IP-100,2013-01-29 00:40:00,
2013-01-28 19:45:00,33.7,33.0,30.06,SW,225,1.4,4.0,97,0.00,,,0.12,Rainwise IP-100,2013-01-29 00:45:00,
2013-01-28 19:50:00,33.8,33.0,30.06,SSW,202,1.4,2.6,97,0.00,,,0.12,Rainwise IP-100,2013-01-29 00:50:00,
2013-01-28 19:55:00,33.8,33.0,30.05,South,180,1.2,3.3,97,0.00,,,0.12,Rainwise IP-100,2013-01-29 00:55:00,
2013-01-28 20:01:00,33.8,33.0,30.05,SSW,202,2.3,2.3,97,0.00,,,0.12,Rainwise IP-100,2013-01-29 01:01:00,
2013-01-28 20:06:00,33.8,33.0,30.05,SW,225,1.6,2.6,97,0.00,,,0.12,Rainwise IP-100,2013-01-29 01:06:00,
2013-01-28 20:11:00,33.9,33.0,30.05,WSW,247,1.4,5.8,97,0.00,,,0.12,Rainwise IP-100,2013-01-29 01:11:00,
2013-01-28 20:16:00,33.9,33.0,30.06,WSW,247,0.0,4.9,97,0.00,,,0.12,Rainwise IP-100,2013-01-29 01:16:00,
2013-01-28 20:21:00,33.9,33.0,30.05,West,270,3.0,4.2,97,0.00,,,0.12,Rainwise IP-100,2013-01-29 01:21:00,
2013-01-28 20:26:00,34.0,33.0,30.05,WNW,292,2.3,3.7,97,0.00,,,0.12,Rainwise IP-100,2013-01-29 01:26:00,
2013-01-28 20:31:00,34.0,33.0,30.05,WSW,247,4.4,4.7,97,0.00,,,0.12,Rainwise IP-100,2013-01-29 01:31:00,
2013-01-28 20:36:00,34.1,33.0,30.04,SSW,202,3.5,5.6,97,0.00,,,0.12,Rainwise IP-100,2013-01-29 01:36:00,
2013-01-28 20:42:00,34.1,33.0,30.05,WSW,247,4.4,7.0,97,0.00,,,0.12,Rainwise IP-100,2013-01-29 01:42:00,
2013-01-28 20:47:00,34.1,33.0,30.04,WSW,247,5.6,6.5,97,0.00,,,0.12,Rainwise IP-100,2013-01-29 01:47:00,
2013-01-28 20:52:00,34.1,33.0,30.04,SW,225,3.7,6.5,97,0.00,,,0.12,Rainwise IP-100,2013-01-29 01:52:00,
2013-01-28 20:57:00,34.2,33.0,30.04,SW,225,4.2,5.4,96,0.00,,,0.12,Rainwise IP-100,2013-01-29 01:57:00,
2013-01-28 21:02:00,34.3,33.0,30.03,West,270,5.1,7.2,96,0.00,,,0.12,Rainwise IP-100,2013-01-29 02:02:00,
2013-01-28 21:07:00,34.3,33.0,30.03,SW,225,3.7,6.8,96,0.00,,,0.12,Rainwise IP-100,2013-01-29 02:07:00,
2013-01-28 21:12:00,34.3,33.0,30.03,WSW,247,1.6,5.8,96,0.00,,,0.12,Rainwise IP-100,2013-01-29 02:12:00,
2013-01-28 21:18:00,34.3,33.0,30.02,SW,225,4.4,5.4,96,0.00,,,0.12,Rainwise IP-100,2013-01-29 02:18:00,
2013-01-28 21:23:00,34.4,33.0,30.02,WSW,247,3.7,6.3,96,0.00,,,0.12,Rainwise IP-100,2013-01-29 02:23:00,
2013-01-28 21:28:00,34.4,33.0,30.02,WSW,247,1.9,7.0,96,0.00,,,0.12,Rainwise IP-100,2013-01-29 02:28:00,
2013-01-28 21:33:00,34.4,33.0,30.03,West,270,4.2,6.3,96,0.00,,,0.12,Rainwise IP-100,2013-01-29 02:33:00,
2013-01-28 21:38:00,34.5,33.0,30.03,WSW,247,4.9,6.5,96,0.00,,,0.12,Rainwise IP-100,2013-01-29 02:38:00,
2013-01-28 21:43:00,34.6,33.0,30.02,SW,225,1.4,7.9,96,0.06,,,0.13,Rainwise IP-100,2013-01-29 02:43:00,
2013-01-28 21:48:00,34.6,33.0,30.02,WSW,247,4.0,8.4,96,0.06,,,0.13,Rainwise IP-100,2013-01-29 02:48:00,
2013-01-28 21:53:00,34.6,33.0,30.03,WSW,247,4.7,6.5,96,0.00,,,0.13,Rainwise IP-100,2013-01-29 02:53:00,
2013-01-28 21:59:00,34.6,33.0,30.02,SW,225,5.1,7.0,96,0.00,,,0.13,Rainwise IP-100,2013-01-29 02:59:00,
2013-01-28 22:04:00,34.6,33.0,30.03,WSW,247,7.2,7.2,96,0.00,,,0.13,Rainwise IP-100,2013-01-29 03:04:00,
2013-01-28 22:09:00,34.7,33.0,30.02,WSW,247,7.9,7.9,96,0.00,,,0.13,Rainwise IP-100,2013-01-29 03:09:00,
2013-01-28 22:14:00,34.7,33.0,30.02,WSW,247,4.7,7.9,95,0.00,,,0.13,Rainwise IP-100,2013-01-29 03:14:00,
2013-01-28 22:19:00,34.7,33.0,30.02,WSW,247,6.3,10.5,95,0.00,,,0.13,Rainwise IP-100,2013-01-29 03:19:00,
2013-01-28 22:24:00,34.7,33.0,30.02,WSW,247,7.9,10.7,95,0.00,,,0.13,Rainwise IP-100,2013-01-29 03:24:00,
2013-01-28 22:29:00,34.7,33.0,30.02,WSW,247,4.9,8.4,95,0.00,,,0.13,Rainwise IP-100,2013-01-29 03:29:00,
2013-01-28 22:35:00,34.7,33.0,30.01,WSW,247,5.4,7.2,95,0.00,,,0.13,Rainwise IP-100,2013-01-29 03:35:00,
2013-01-28 22:40:00,34.7,33.0,30.02,West,270,4.9,6.8,95,0.00,,,0.13,Rainwise IP-100,2013-01-29 03:40:00,
2013-01-28 22:45:00,34.7,33.0,30.01,WSW,247,1.4,6.5,95,0.00,,,0.13,Rainwise IP-100,2013-01-29 03:45:00,
2013-01-28 22:50:00,34.7,33.0,30.02,WSW,247,3.7,8.9,95,0.00,,,0.13,Rainwise IP-100,2013-01-29 03:50:00,
2013-01-28 22:55:00,34.7,33.0,30.01,West,270,3.5,7.0,95,0.00,,,0.13,Rainwise IP-100,2013-01-29 03:55:00,
2013-01-28 23:00:00,34.7,33.0,30.02,WSW,247,4.4,8.9,95,0.00,,,0.13,Rainwise IP-100,2013-01-29 04:00:00,
2013-01-28 23:05:00,34.7,33.0,30.02,WSW,247,4.4,6.8,95,0.00,,,0.13,Rainwise IP-100,2013-01-29 04:05:00,
2013-01-28 23:10:00,34.7,33.0,30.02,SW,225,7.2,7.2,95,0.00,,,0.13,Rainwise IP-100,2013-01-29 04:10:00,
2013-01-28 23:15:00,34.7,33.0,30.01,WSW,247,3.5,8.9,95,0.00,,,0.13,Rainwise IP-100,2013-01-29 04:15:00,
2013-01-28 23:21:00,34.7,33.0,30.02,West,270,5.4,6.3,95,0.00,,,0.13,Rainwise IP-100,2013-01-29 04:21:00,
2013-01-28 23:26:00,34.7,33.0,30.02,West,270,5.4,6.1,95,0.00,,,0.13,Rainwise IP-100,2013-01-29 04:26:00,
2013-01-28 23:31:00,34.8,33.0,30.02,WNW,292,3.5,7.9,95,0.00,,,0.13,Rainwise IP-100,2013-01-29 04:31:00,
2013-01-28 23:36:00,34.8,33.0,30.02,WSW,247,3.3,5.6,95,0.00,,,0.13,Rainwise IP-100,2013-01-29 04:36:00,
2013-01-28 23:41:00,34.8,33.0,30.02,West,270,3.0,5.8,95,0.00,,,0.13,Rainwise IP-100,2013-01-29 04:41:00,
2013-01-28 23:46:00,34.8,33.0,30.01,West,270,2.3,5.6,95,0.00,,,0.13,Rainwise IP-100,2013-01-29 04:46:00,
2013-01-28 23:51:00,34.8,33.0,30.02,WNW,292,4.2,4.9,95,0.00,,,0.13,Rainwise IP-100,2013-01-29 04:51:00,
2013-01-28 23:56:00,34.8,33.0,30.02,WSW,247,4.7,6.1,95,0.00,,,0.13,Rainwise IP-100,2013-01-29 04:56:00,